GW5164 Weather Reports


time (UTC)temp
F
wind
direction
speed
knots
gust
knots
rain 1hr
in
rain 24hr
in
rain mn
in
humidity
%
barometer
mb
20260510233112 79 134 2.6 3.5 0.00 0.00 0.00 36 1014.6
20260510231556 80 131 0.9 4.3 0.00 0.00 0.00 34 1014.5
20260510230055 81 134 1.7 3.5 0.00 0.00 0.00 32 1014.5
20260510224556 82 203 0.9 4.3 0.00 0.00 0.00 31 1014.4
20260510223106 83 136 2.6 4.3 0.00 0.00 0.00 30 1014.3
20260510221600 83 128 1.7 3.5 0.00 0.00 0.00 29 1014.3
20260510214601 83 236 3.5 7.0 0.00 0.00 0.00 28 1014.3
20260510213100 84 236 2.6 5.2 0.00 0.00 0.00 28 1014.2
20260510211554 84 337 1.7 6.1 0.00 0.00 0.00 27 1014.1
20260510210056 83 255 3.5 7.8 0.00 0.00 0.00 26 1014.2
20260510204601 83 229 2.6 8.7 0.00 0.00 0.00 28 1014.3
20260510203055 82 141 4.3 9.6 0.00 0.00 0.00 27 1014.4
20260510201602 82 92 3.5 9.6 0.00 0.00 0.00 25 1014.4
20260510200057 82 119 2.6 8.7 0.00 0.00 0.00 27 1014.6
20260510194559 82 110 5.2 10.4 0.00 0.00 0.00 25 1014.8
20260510193054 82 288 2.6 8.7 0.00 0.00 0.00 27 1015.1
20260510191558 82 205 2.6 9.6 0.00 0.00 0.00 27 1015.2
20260510190054 81 129 5.2 9.6 0.00 0.00 0.00 29 1015.2
20260510184603 81 124 4.3 10.4 0.00 0.00 0.00 28 1015.2
20260510183056 81 238 2.6 7.8 0.00 0.00 0.00 26 1015.3
20260510181608 80 153 2.6 7.0 0.00 0.00 0.00 28 1015.4
20260510180107 80 224 4.3 7.0 0.00 0.00 0.00 26 1015.7
20260510174559 80 206 3.5 7.8 0.00 0.00 0.00 27 1015.6
20260510173102 79 136 6.1 10.4 0.00 0.00 0.00 29 1016.0
20260510171603 80 264 1.7 6.1 0.00 0.00 0.00 28 1016.2
20260510170058 79 207 1.7 7.8 0.00 0.00 0.00 30 1016.3
20260510164602 79 108 3.5 8.7 0.00 0.00 0.00 30 1016.1
20260510163100 79 266 4.3 6.1 0.00 0.00 0.00 30 1016.2
20260510161605 79 105 1.7 6.1 0.00 0.00 0.00 28 1016.4
20260510160059 77 237 2.6 4.3 0.00 0.00 0.00 31 1016.7
20260510154605 76 97 1.7 5.2 0.00 0.00 0.00 33 1016.5
20260510153103 76 331 2.6 6.1 0.00 0.00 0.00 34 1016.6
20260510151559 74 326 3.5 5.2 0.00 0.00 0.00 36 1016.6
20260510150123 74 298 3.5 12.2 0.00 0.00 0.00 36 1016.9
20260510144554 74 326 2.6 7.8 0.00 0.00 0.00 37 1016.8
20260510143103 72 7 2.6 6.1 0.00 0.00 0.00 40 1016.7
20260510141555 72 94 0.9 6.1 0.00 0.00 0.00 41 1016.6
20260510140057 71 231 0.9 3.5 0.00 0.00 0.00 48 1016.7
20260510134556 71 235 0.9 2.6 0.00 0.00 0.00 52 1016.7
20260510133056 69 93 0.0 2.6 0.00 0.00 0.00 55 1016.6
20260510131554 68 121 0.0 2.6 0.00 0.00 0.00 57 1016.6
20260510130054 66 0 0.0 1.7 0.00 0.00 0.00 60 1016.4
20260510124603 65 0 0.0 1.7 0.00 0.00 0.00 67 1016.3
20260510123059 62 116 0.0 0.9 0.00 0.00 0.00 85 1016.3
20260510121554 59 127 0.0 1.7 0.00 0.00 0.00 87 1016.0
20260510120054 58 110 0.0 0.9 0.00 0.00 0.00 86 1015.7
20260510114556 56 0 0.0 0.9 0.00 0.00 0.00 91 1015.5
20260510113052 53 0 0.9 3.5 0.00 0.00 0.00 92 1015.1
20260510111604 52 309 0.9 2.6 0.00 0.00 0.00 93 1014.9
20260510110055 51 0 0.0 0.9 0.00 0.00 0.00 94 1014.7
20260510104557 50 0 0.0 1.7 0.00 0.00 0.00 94 1014.5
20260510103103 50 0 0.0 0.9 0.00 0.00 0.00 95 1014.3
20260510101559 50 0 0.0 0.9 0.00 0.00 0.00 95 1014.1
20260510100055 50 0 0.0 0.9 0.00 0.00 0.00 94 1013.9
20260510094607 51 0 0.0 1.7 0.00 0.00 0.00 94 1013.8
20260510093114 51 320 0.0 0.9 0.00 0.00 0.00 94 1013.6
20260510091554 52 0 0.0 0.9 0.00 0.00 0.00 94 1013.6
20260510090058 52 124 0.0 1.7 0.00 0.00 0.00 93 1013.5
20260510084554 53 0 0.0 2.6 0.00 0.00 0.00 94 1013.3
20260510083106 53 272 0.9 1.7 0.00 0.00 0.00 94 1013.2
20260510081554 54 0 0.0 0.9 0.00 0.00 0.00 94 1013.1
20260510080058 54 86 0.9 2.6 0.00 0.00 0.00 93 1012.7
20260510074559 55 281 0.9 2.6 0.00 0.00 0.00 94 1012.4
20260510073056 55 15 0.0 0.9 0.00 0.00 0.00 94 1012.5
20260510071555 55 0 0.0 0.9 0.00 0.00 0.00 94 1012.4
20260510070058 56 0 0.9 2.6 0.00 0.00 0.00 93 1012.3
20260510064604 56 0 0.0 0.0 0.00 0.00 0.00 94 1012.4
20260510063056 56 0 0.0 0.9 0.00 0.00 0.00 94 1012.3
20260510061559 57 0 0.0 0.9 0.00 0.00 0.00 93 1012.5
20260510060055 57 317 0.0 1.7 0.00 0.00 0.00 93 1012.7
20260510054556 57 4 0.0 0.0 0.00 0.00 0.00 93 1012.8
20260510053059 58 0 0.0 0.9 0.00 0.00 0.00 92 1012.7
20260510051602 59 322 1.7 2.6 0.00 0.00 0.00 93 1012.8
20260510050059 58 0 0.0 0.9 0.00 0.00 0.00 93 1013.0
20260510044610 58 0 0.0 0.9 0.00 0.00 0.00 92 1012.9
20260510043057 59 0 0.0 0.9 0.00 0.00 0.00 92 1012.8
20260510041554 59 0 0.0 0.9 0.00 0.00 0.00 91 1012.8
20260510040057 60 284 0.0 1.7 0.00 0.00 0.00 90 1013.0
20260510034554 61 0 0.0 0.9 0.00 0.00 0.00 90 1012.9
20260510033102 61 0 0.0 0.0 0.00 0.00 0.00 89 1012.9
20260510031557 61 0 0.0 1.7 0.00 0.00 0.00 88 1013.0
20260510030107 62 0 0.9 1.7 0.00 0.00 0.00 88 1013.0
20260510024558 62 0 0.0 0.9 0.00 0.00 0.00 87 1013.0
20260510023055 63 0 0.0 0.9 0.00 0.00 0.00 85 1012.7
20260510021601 64 320 0.0 1.7 0.00 0.00 0.00 83 1012.5
20260510020056 65 217 0.0 0.9 0.00 0.00 0.00 82 1012.4
20260510014600 66 139 0.0 0.9 0.00 0.00 0.00 80 1012.2
20260510013055 67 0 0.0 0.9 0.00 0.00 0.00 79 1012.0
20260510011558 67 0 0.0 0.9 0.00 0.00 0.00 78 1011.9
20260510010055 67 130 0.0 2.6 0.00 0.00 0.00 77 1011.5
20260510004557 67 0 0.0 0.9 0.00 0.00 0.00 77 1011.3
20260510003057 67 0 0.0 0.9 0.00 0.00 0.00 77 1011.0
20260510001556 68 134 0.0 2.6 0.00 0.00 0.00 74 1010.7
20260510000054 69 213 0.0 2.6 0.00 0.00 0.00 72 1010.6
20260509234556 70 240 0.0 1.7 0.00 0.00 0.00 70 1010.5